OPS 6582 (TRANSIT 5E-5)

导读

OPS 6582又名TRANSIT 5E-5,是美国于1964年12月13日发射的导航试验卫星,属于美国早期“子午仪”(Transit)卫星系列。该系列是世界上首个卫星导航系统,为早期海上弹道导弹核潜艇提供定位服务,开创了卫星导航时代。OPS 6582承担了该系统的技术验证任务,测试了卫星导航的核心技术,为后续全球导航系统发展奠定了基础,是航天导航领域早期探索的重要见证。

Basic Information
目录编号:
959
目录名称:
OPS 6582 (TRANSIT 5E-5)
国际标识:
1964-083C
轨道中心:
EARTH
卫星名称:
OPS 6582 (TRANSIT 5E-5)
卫星全名:
--
卫星状态:
在轨 (已飞行22552 天)
发射日期:
1964-12-13 UTC
国别 :
美国 (US)
星等 :
--
This satellite is enrolled in the Space Conjunction Data Service (SCDS) and the current flight risk assessment level is: No High Risk
Orbit Information
数据来源 国际轨道数据
星历时间: 2026-09-11T01:51:49+0800
15小时前
查看轨道信息
半长轴: 7404.693km
偏心率: 0.0044051
轨道倾角: 90.015°
近地点辐角 51.952°
升交点赤经 187.437°
平近点角 11.350°
近地点: 993.937km
远地点: 1059.175km
周期: 105.687分钟
每日圈数: 13.62518
Detailed Information
使用方式:
暂无
2D Orbit Map
3D Orbit Map
Orbit Altitude Analysis Chart
Orbit Inclination Analysis Chart
Orbit Comprehensive Analysis Chart
View Comprehensive Chart
Conjunction Data List
Event ID Objects TCA Miss Dist (km) Collision Risk Probability Collision Risk Index (CRI) Action
CDM_260912-212900-095904-546924
2026-09-12T
21:29:35+0000
1.326 km
极远距离
1.009917E-5 中风险 0.55
CDM_260911-094800-095902-166629
2026-09-11T
09:48:00+0000
2.439 km
极远距离
1.769899E-6 低风险 0.4
Miss Distance Evolution Trend with All Objects
Collision Probability Evolution Trend with All Objects